[ hide orbit diagram ]
For accurate long-term ephemerides, please instead use our Horizons system.This orbit viewer was implemented using two-body methods, and hence should not be used for determining accurate long-term trajectories (over several years or decades) or planetary encounter circumstances.
Orbital Elements at Epoch 2459000.5 (2020-May-31.0) TDB
Reference: JPL 8 (heliocentric ecliptic J2000)
Element | Value | Uncertainty (1-sigma) | Units |
e | .05513888436314869 | 6.3776e-08 | |
a | 2.815510484950368 | 4.3492e-08 | au |
q | 2.660266377897456 | 1.9847e-07 | au |
i | 3.511942114230771 | 7.3678e-06 | deg |
node | 15.71945340990379 | 0.00010655 | deg |
peri | 81.7113621115154 | 0.00012652 | deg |
M | 298.6780746093485 | 6.7703e-05 | deg |
tp | 2459294.432380545186 (2021-Mar-20.93238055) | 0.00032547 | TDB |
period | 1725.576232679717 4.72 | 3.9983e-05 1.095e-07 | d yr |
n | .2086259611034057 | 4.8341e-09 | deg/d |
Q | 2.970754592003278 | 4.589e-08 | au |
|
| | Orbit Determination Parameters
Additional Information
|
[ show covariance matrix ]
Physical Parameter Table
Parameter |
Symbol |
Value |
Units |
Sigma |
Reference |
Notes |
absolute magnitude |
H |
17.1 |
|
n/a |
MPO495386 |
|
|
487136 (2014 OA202) Discovered 2008-Apr-06 by Mt. Lemmon Survey at Mount Lemmon |
Reference: | Last Updated: 2017-03-14 |
|
Alternate Designations
2014 OA202 = 2010 TO107 = 2012 BP59 = 2015 VV34 |
|
|